TimeEDT,TemperatureF,Dew PointF,Humidity,Sea Level PressureIn,VisibilityMPH,Wind Direction,Wind SpeedMPH,Gust SpeedMPH,PrecipitationIn,Events,Conditions,WindDirDegrees,DateUTC
12:53 AM,57.9,46.9,67,30.11,10.0,NW,8.1,-,N/A,,Clear,320,2013-07-01 04:53:00
1:53 AM,57.0,48.0,72,30.11,10.0,NW,6.9,-,N/A,,Clear,320,2013-07-01 05:53:00
2:53 AM,61.0,46.0,58,30.12,10.0,NNW,11.5,-,N/A,,Clear,330,2013-07-01 06:53:00
3:53 AM,55.9,46.9,72,30.12,10.0,SE,3.5,-,N/A,,Clear,130,2013-07-01 07:53:00
4:53 AM,55.9,46.9,72,30.14,10.0,ENE,6.9,-,N/A,,Clear,70,2013-07-01 08:53:00
5:53 AM,54.0,46.9,77,30.16,10.0,East,4.6,-,N/A,,Clear,80,2013-07-01 09:53:00
6:53 AM,55.9,46.0,69,30.18,10.0,ENE,9.2,-,N/A,,Clear,70,2013-07-01 10:53:00
7:53 AM,55.9,45.0,67,30.20,10.0,ENE,10.4,19.6,N/A,,Clear,70,2013-07-01 11:53:00
8:53 AM,57.9,46.0,65,30.23,10.0,East,11.5,-,N/A,,Clear,80,2013-07-01 12:53:00
9:53 AM,60.1,46.9,62,30.24,10.0,East,6.9,-,N/A,,Clear,100,2013-07-01 13:53:00
10:53 AM,60.1,45.0,57,30.25,10.0,East,11.5,-,N/A,,Clear,100,2013-07-01 14:53:00
11:53 AM,60.1,45.0,57,30.26,10.0,ESE,12.7,-,N/A,,Clear,110,2013-07-01 15:53:00
12:53 PM,60.1,45.0,57,30.27,10.0,East,10.4,-,N/A,,Clear,80,2013-07-01 16:53:00
1:53 PM,61.0,45.0,56,30.27,10.0,East,10.4,-,N/A,,Clear,80,2013-07-01 17:53:00
2:53 PM,63.0,44.1,50,30.26,10.0,East,9.2,-,N/A,,Clear,100,2013-07-01 18:53:00
3:53 PM,64.0,44.1,48,30.26,10.0,East,6.9,-,N/A,,Clear,100,2013-07-01 19:53:00
4:53 PM,63.0,44.1,50,30.25,10.0,East,6.9,-,N/A,,Clear,80,2013-07-01 20:53:00
5:53 PM,64.0,44.1,48,30.25,10.0,East,8.1,-,N/A,,Clear,100,2013-07-01 21:53:00
6:53 PM,63.0,42.1,46,30.24,10.0,East,9.2,-,N/A,,Clear,100,2013-07-01 22:53:00
7:53 PM,61.0,37.0,41,30.23,10.0,East,8.1,-,N/A,,Clear,80,2013-07-01 23:53:00
8:53 PM,57.9,42.1,56,30.23,10.0,East,3.5,-,N/A,,Clear,90,2013-07-02 00:53:00
9:53 PM,51.1,44.1,77,30.22,10.0,ENE,4.6,-,N/A,,Clear,60,2013-07-02 01:53:00
10:53 PM,46.9,42.1,83,30.23,10.0,East,3.5,-,N/A,,Clear,80,2013-07-02 02:53:00
11:53 PM,45.0,39.0,80,30.23,10.0,ENE,4.6,-,N/A,,Clear,70,2013-07-02 03:53:00